Regional Weather Roundup
Issued by NWS Pendleton, OR

Home | Current Version | Previous Version | Text Only | Print | Product List | Glossary On
Versions: 1 2 3 4 5 6 7 8 9 10 11 12 13 14 15 16 17 18 19 20 21 22 23 24 25 26 27 28 29 30 31 32 33 34 35 36 37 38 39 40 41 42 43 44 45 46 47 48 49 50
000
ASUS46 KPDT 070510
RWRPDT
PENDLETON REGIONAL WEATHER ROUNDUP
NATIONAL WEATHER SERVICE PENDLETON OREGON
900 PM PST FRI MAR 6 2015

NOTE: FAIR INDICATES FEW OR NO CLOUDS BELOW 12,000 FEET WITH NO
SIGNIFICANT WEATHER AND/OR OBSTRUCTIONS TO VISIBILITY.

# INDICATES UNOFFICIAL STATION AND DATA

WAZ520-070610-
EAST SLOPES OF WASHINGTON CASCADES

CITY            SKY/WX      TMP DP  RH  WIND    PRES   REMARKS
#BUMPING DAM    N/A         38  N/A N/A CALM    N/A
#CLE ELUM LAKE  N/A         45  34  65  CALM    30.30S
#CLIFFDEL 2NW   N/A         43  27  53  N2      N/A
#EASTON DOT     N/A         45  29  53  CALM    N/A
#MANASTASH CYN  N/A         39  28  64  CALM    30.26F
#PEOH POINT     N/A         45  23  41  W7      N/A
#RONALD 2NW     N/A         44  32  62  N1      30.17S
#SOUTH BLEWITT  N/A         38  33  82  CALM    N/A
#TEANAWAY 4NE   N/A         43  34  70  CALM    N/A
$$

WAZ521-070610-
SIMCOE HIGHLANDS

CITY            SKY/WX      TMP DP  RH  WIND    PRES   REMARKS
#SATUS PASS DOT N/A         39  23  52  CALM    N/A
#CENTERVILLE 4W N/A         50  33  52  CALM    30.04S
#GOLDENDALE     N/A         45  34  65  E3      N/A
#GOLDENDALE 5WNWN/A         N/A N/A N/A CALM    30.26S
#GOODNOE HILLS  N/A         50  32  50  S2      N/A
$$

WAZ026-070610-
KITTITAS VALLEY

CITY            SKY/WX      TMP DP  RH  WIND    PRES   REMARKS
ELLENSBURG AP   MOCLDY      48  32  54  N5      30.29S
#KITTITAS 4N    N/A         46  33  60  CALM    28.60S
$$

WAZ027-070610-
YAKIMA VALLEY

CITY            SKY/WX      TMP DP  RH  WIND    PRES   REMARKS
SUNNYSIDE AP    CLOUDY      41  33  73  CALM    30.30S
YAKIMA AIRPORT  MOCLDY      43  34  70  NW8     30.30S
#DONALD 2NE     N/A         54  21  27  S3      29.13S
#WAPATO 4NE     N/A         54  21  27  S3      29.13S
#W YAKIMA       N/A         48  36  63  NW2     30.31F
#ZILLAH DOT     N/A         47  33  58  SE1     N/A
$$

WAZ028-070610-
LOWER COLUMBIA BASIN...WASHINGTON

CITY            SKY/WX      TMP DP  RH  WIND    PRES   REMARKS
PASCO           CLOUDY      41  34  76  CALM    30.30S
PROSSER AWOS    N/A         43  36  76  N2      30.33R
RICHLAND AWOS   CLOUDY      45  34  65  CALM    30.29S
#ELTOPIA        N/A         45  34  65  W3      30.26S
#PROSSER DOT    N/A         47  35  63  W1      N/A
$$

WAZ029-070610-
FOOTHILLS OF THE BLUES...WASHINGTON

CITY            SKY/WX      TMP DP  RH  WIND    PRES   REMARKS
WALLA WALLA AP  MOCLDY      50  29  44  E7      30.29S
#DELANEY DOT    N/A         41  30  65  CALM    N/A
#SUDBURY        N/A         38  N/A N/A CALM    N/A
#WHITMAN COLLEGEN/A         54  32  43  E3      30.33S
#WAITSBURG 8N   N/A         34  10  36  CALM    30.15S
$$

WAZ030-070610-
BLUE MOUNTAINS...WASHINGTON

CITY            SKY/WX      TMP DP  RH  WIND    PRES   REMARKS
$$

ORZ009-041-WAZ024-070610-
COLUMBIA RIVER GORGE

CITY            SKY/WX      TMP DP  RH  WIND    PRES   REMARKS
HOOD RIVER AP   MOCLDY      46  36  68  S3      30.31S
THE DALLES AP   MOCLDY      50  34  54  E3      30.29R
#ARLINGTON AIRPON/A         51  37  59  CALM    30.00S
#ARLINGTON HS   N/A         46  36  68  NE5     30.23R
#MARYHILL       N/A         57  31  37  NE5     N/A
#MOSIER 1S      N/A         55  23  29  W8      30.29R
#MURDOCK        N/A         57  38  49  N3      30.31R

$$

ORZ510-070610-
NORTH CENTRAL OREGON

CITY            SKY/WX      TMP DP  RH  WIND    PRES   REMARKS
$$

ORZ511-070610-
CENTRAL OREGON

CITY            SKY/WX      TMP DP  RH  WIND    PRES   REMARKS
BEND AIRPORT    MOCLDY      43  27  53  SW5     30.33R
MADRAS AIRPORT  MOCLDY      45  28  51  CALM    30.33R
PRINEVILLE AP   MOCLDY      37  25  61  CALM    30.32R
REDMOND AIRPORT MOCLDY      39  25  57  S3      30.32R
#BEND 6E        N/A         46  22  38  CALM    30.27F
#BEND 1SW       N/A         37  26  64  E1      N/A
#BEND-AWBREY    N/A         46  28  49  CALM    30.32S
#CROOKED RVR RANN/A         50  29  44  E7      30.32R
#LAKE BILLY CHINN/A         49   7  18  CALM    30.36S
#POWELL BUTTE   N/A         45  22  40  S2      29.93S
#PRINEVILLE 3N  N/A         42  27  55  NW1     30.30R

$$


ORZ509-070610-
EAST SLOPES OF OREGON CASCADES

CITY            SKY/WX      TMP DP  RH  WIND    PRES   REMARKS
#MT BACHELOR-MIDN/A         39  12  32  CALM    N/A
#SISTERS 3N     N/A         35  18  49  CALM    30.31S
#SUNRIVER       N/A         37  26  64  CALM    30.28R

$$

ORZ044-070610-
LOWER COLUMBIA BASIN...OREGON

CITY            SKY/WX      TMP DP  RH  WIND    PRES   REMARKS
HERMISTON       MOCLDY      46  33  60  S5      30.28S
#BOARDMAN 8SW   N/A         46  36  68  N3      30.29S
#IRRIGON 4NW    N/A         45  34  65  S1      N/A
$$

ORZ507-070610-
NORTHERN FOOTHILLS OF THE BLUES

CITY            SKY/WX      TMP DP  RH  WIND    PRES   REMARKS
PENDLETON AIRPT MOCLDY      43  31  62  SE9     30.29S

$$

ORZ508-070610-
SOUTHERN FOOTHILLS OF THE BLUES

CITY            SKY/WX      TMP DP  RH  WIND    PRES   REMARKS
LEXINGTON       MOCLDY      45  32  60  E10     30.31S

$$

ORZ502-503-070610-
BLUE MOUNTAINS

CITY            SKY/WX      TMP DP  RH  WIND    PRES   REMARKS
MEACHAM         PTCLDY      29  23  78  CALM    30.33S
#HEPPNER 15SE   N/A         37  27  67  CALM    30.26S
$$

ORZ505-070610-
JOHN DAY BASIN

CITY            SKY/WX      TMP DP  RH  WIND    PRES   REMARKS
JOHN DAY        PTCLDY      44  27  51  E10     30.35R
#WINLOCK        N/A         43  22  43  CALM    30.37S
$$

ORZ506-070610-
OCHOCO AND JOHN DAY HIGHLANDS

CITY            SKY/WX      TMP DP  RH  WIND    PRES   REMARKS
$$

ORZ049-070610-
GRANDE RONDE VALLEY

CITY            SKY/WX      TMP DP  RH  WIND    PRES   REMARKS
LA GRANDE       PTCLDY      39  19  44  SW5     30.31R
#ELGIN 3N       N/A         35  20  54  CALM    30.27F
#IMBLER SCHOOL  N/A         40  26  57  W2      30.26R
$$

ORZ050-070610-
WALLOWA COUNTY

CITY            SKY/WX      TMP DP  RH  WIND    PRES   REMARKS
#JOSEPH 3W      N/A         42  20  41  SW3     30.14F



$$



USA.gov is the U.S. government's official web portal to all federal, state and local government web resources and services.